KK7DS Weather Reports


time (UTC)temp
C
wind
direction
speed
KPH
gust
KPH
rain 1hr
cm
rain 24hr
cm
rain mn
cm
humidity
%
barometer
mb
20260505193618 15 101 1.6 6.4 0.00 0.00 0.00 78 1017.1
20260505192632 15 305 0.0 3.2 0.00 0.00 0.00 82 1017.1
20260505191814 13 164 0.0 3.2 0.00 0.00 0.00 84 1017.1
20260505190037 13 215 1.6 4.8 0.00 0.00 0.00 84 1017.1
20260505185055 13 234 1.6 4.8 0.00 0.00 0.00 85 1017.1
20260505184245 13 147 1.6 4.8 0.00 0.00 0.00 85 1017.2
20260505183335 13 194 0.0 4.8 0.00 0.00 0.00 85 1017.2
20260505182454 13 230 1.6 4.8 0.00 0.00 0.00 86 1017.2
20260505181645 13 220 1.6 6.4 0.00 0.00 0.00 86 1017.1
20260505180714 13 246 3.2 8.0 0.00 0.00 0.00 86 1017.1
20260505175715 13 227 1.6 4.8 0.00 0.00 0.00 86 1017.1
20260505174720 12 220 1.6 8.0 0.00 0.00 0.00 86 1017.1
20260505173027 13 212 3.2 6.4 0.00 0.00 0.00 86 1017.0
20260505172130 12 153 0.0 3.2 0.00 0.00 0.00 86 1016.9
20260505171133 12 219 1.6 6.4 0.00 0.00 0.00 87 1016.9
20260505170310 12 218 0.0 3.2 0.00 0.00 0.00 87 1016.8
20260505165415 12 252 0.0 4.8 0.00 0.00 0.00 89 1016.7
20260505164418 12 239 1.6 6.4 0.00 0.00 0.00 89 1016.7
20260505163532 12 246 1.6 4.8 0.00 0.00 0.00 89 1016.6
20260505162620 12 208 1.6 4.8 0.00 0.00 0.00 89 1016.6
20260505161630 12 215 3.2 8.0 0.00 0.00 0.00 89 1016.5
20260505160803 11 201 0.0 6.4 0.00 0.00 0.00 91 1016.5
20260505152029 11 246 3.2 8.0 0.00 0.00 0.00 92 1016.4
20260505151144 11 248 1.6 4.8 0.00 0.00 0.00 92 1016.4
20260505150217 11 216 1.6 8.0 0.00 0.00 0.00 91 1016.3
20260505124550 11 215 1.6 6.4 0.00 0.00 0.00 91 1015.4
20260505123557 11 215 0.0 3.2 0.00 0.00 0.00 91 1015.4
20260505122625 11 217 1.6 4.8 0.00 0.00 0.00 91 1015.4
20260505121800 11 207 0.0 3.2 0.00 0.00 0.00 91 1015.3
20260505120955 11 241 0.0 6.4 0.00 0.00 0.00 91 1015.2
20260505115200 11 212 1.6 4.8 0.00 0.00 0.00 91 1015.2
20260505114350 11 221 0.0 6.4 0.00 0.00 0.00 91 1015.2
20260505113503 11 226 1.6 6.4 0.00 0.00 0.00 90 1015.1
20260505112703 11 213 1.6 4.8 0.00 0.00 0.00 90 1015.2
20260505111810 11 205 0.0 4.8 0.00 0.00 0.00 90 1015.1
20260505110818 11 214 0.0 4.8 0.00 0.00 0.00 90 1015.0
20260505102208 11 187 0.0 4.8 0.00 0.00 0.00 91 1014.7
20260505101346 11 221 1.6 4.8 0.00 0.00 0.00 91 1014.7
20260505100519 11 220 1.6 6.4 0.00 0.00 0.00 91 1014.8
20260505095655 11 211 1.6 4.8 0.00 0.00 0.00 90 1014.7
20260505094730 11 208 1.6 6.4 0.00 0.00 0.00 91 1014.7
20260505093750 11 220 1.6 4.8 0.00 0.00 0.00 91 1014.7
20260505092859 11 220 1.6 6.4 0.00 0.00 0.00 90 1014.6
20260505091101 11 217 1.6 9.7 0.00 0.00 0.00 90 1014.5
20260505090130 11 213 3.2 8.0 0.00 0.00 0.00 90 1014.4
20260505085209 11 223 1.6 8.0 0.00 0.00 0.00 89 1014.4
20260505084218 11 232 4.8 8.0 0.00 0.00 0.00 89 1014.4
20260505083255 11 225 4.8 11.3 0.00 0.00 0.00 88 1014.4
20260505082445 11 220 4.8 12.9 0.00 0.00 0.00 88 1014.2
20260505081538 11 222 1.6 6.4 0.00 0.00 0.00 88 1014.3
20260505080549 11 227 3.2 8.0 0.00 0.00 0.00 87 1014.2
20260505075749 12 222 1.6 6.4 0.00 0.00 0.00 87 1014.1
20260505074110 12 223 4.8 9.7 0.00 0.00 0.00 86 1013.9
20260505073244 12 219 4.8 14.5 0.00 0.00 0.00 86 1013.6
20260505072310 12 217 4.8 14.5 0.00 0.00 0.00 85 1013.6
20260505071455 12 224 6.4 16.1 0.00 0.00 0.00 85 1013.4
20260505070732 12 230 6.4 12.9 0.00 0.00 0.00 85 1013.4
20260505070550 12 230 6.4 12.9 0.00 0.00 0.00 85 1013.4
20260505065710 12 216 4.8 12.9 0.00 0.00 0.00 85 1013.2
20260505064800 13 220 1.6 11.3 0.00 0.00 0.00 85 1013.1
20260505063034 13 219 3.2 6.4 0.00 0.00 0.00 84 1013.1
20260505062140 13 213 3.2 12.9 0.00 0.00 0.00 83 1013.0
20260505061159 14 211 3.2 12.9 0.00 0.00 0.00 82 1012.9
20260505060255 14 214 4.8 11.3 0.00 0.00 0.00 81 1012.9
20260505055435 15 216 3.2 11.3 0.00 0.00 0.00 80 1012.9
20260505054535 15 215 3.2 8.0 0.00 0.00 0.00 79 1012.7
20260505053709 15 210 1.6 8.0 0.00 0.00 0.00 79 1012.8
20260505052840 16 219 1.6 4.8 0.00 0.00 0.00 79 1012.7
20260505051853 16 217 1.6 11.3 0.00 0.00 0.00 79 1012.6
20260505050111 16 209 3.2 6.4 0.00 0.00 0.00 78 1012.5
20260505041648 17 221 3.2 9.7 0.00 0.00 0.00 77 1011.7
20260505040743 18 240 4.8 12.9 0.00 0.00 0.00 77 1011.6
20260505035813 18 217 6.4 16.1 0.00 0.00 0.00 77 1011.4
20260505034855 18 224 6.4 14.5 0.00 0.00 0.00 77 1011.2
20260505033158 18 221 4.8 12.9 0.00 0.00 0.00 77 1011.1
20260505032254 18 213 4.8 12.9 0.00 0.00 0.00 76 1011.1
20260505031432 18 216 4.8 12.9 0.00 0.00 0.00 76 1011.0
20260505030605 19 216 3.2 14.5 0.00 0.00 0.00 74 1010.9
20260505025705 19 218 4.8 14.5 0.00 0.00 0.00 73 1010.9
20260505024736 20 222 4.8 12.9 0.00 0.00 0.00 72 1010.9
20260505023815 20 216 4.8 12.9 0.00 0.00 0.00 72 1010.8
20260505022020 20 219 3.2 11.3 0.00 0.00 0.00 71 1010.9
20260505021105 20 227 4.8 11.3 0.00 0.00 0.00 70 1010.9
20260505020245 20 219 4.8 11.3 0.00 0.00 0.00 70 1010.9
20260505015328 20 214 4.8 16.1 0.00 0.00 0.00 71 1010.9
20260505014330 20 209 4.8 11.3 0.00 0.00 0.00 70 1011.0
20260505013454 20 222 4.8 11.3 0.00 0.00 0.00 70 1011.1
20260505012654 20 221 4.8 9.7 0.00 0.00 0.00 69 1011.1
20260505011830 20 217 4.8 16.1 0.00 0.00 0.00 69 1011.1
20260505010953 21 220 6.4 12.9 0.00 0.00 0.00 68 1011.1
20260505005056 21 216 4.8 11.3 0.00 0.00 0.00 68 1011.2
20260505004200 21 231 4.8 12.9 0.00 0.00 0.00 67 1011.2
20260505003341 21 210 4.8 11.3 0.00 0.00 0.00 67 1011.3
20260505002543 21 212 8.0 16.1 0.00 0.00 0.00 67 1011.3
20260505001714 21 236 3.2 12.9 0.00 0.00 0.00 66 1011.4
20260505000855 21 230 6.4 17.7 0.00 0.00 0.00 66 1011.4
20260504235910 21 237 4.8 12.9 0.00 0.00 0.00 66 1011.4
20260504234057 21 237 4.8 14.5 0.00 0.00 0.00 65 1011.4
20260504233230 21 219 4.8 14.5 0.00 0.00 0.00 67 1011.5
20260504232238 21 223 6.4 12.9 0.00 0.00 0.00 67 1011.6
20260504231305 21 228 4.8 14.5 0.00 0.00 0.00 67 1011.8
20260504230337 20 225 6.4 12.9 0.00 0.00 0.00 66 1011.9
20260504225445 21 240 3.2 11.3 0.00 0.00 0.00 65 1012.0
20260504224621 21 208 3.2 11.3 0.00 0.00 0.00 65 1012.1
20260504223819 20 212 3.2 12.9 0.00 0.00 0.00 66 1012.2
20260504222104 20 234 4.8 9.7 0.00 0.00 0.00 68 1012.3
20260504221105 19 247 6.4 14.5 0.00 0.00 0.00 68 1012.4
20260504220245 20 176 1.6 11.3 0.00 0.00 0.00 68 1012.4
20260504215310 20 223 6.4 16.1 0.00 0.00 0.00 67 1012.6
20260504214315 19 221 4.8 9.7 0.00 0.00 0.00 70 1012.7
20260504213450 18 221 4.8 11.3 0.00 0.00 0.00 70 1012.9
20260504212627 18 229 6.4 14.5 0.00 0.00 0.00 69 1013.0
20260504211710 18 218 3.2 11.3 0.00 0.00 0.00 70 1013.2
20260504210820 18 203 4.8 14.5 0.00 0.00 0.00 71 1013.3
20260504210005 18 217 4.8 11.3 0.00 0.00 0.00 71 1013.5
20260504204150 17 223 4.8 11.3 0.00 0.00 0.00 73 1013.5
20260504203330 17 223 4.8 14.5 0.00 0.00 0.00 74 1013.6
20260504202448 17 225 6.4 16.1 0.00 0.00 0.00 75 1013.7
20260504201535 17 215 4.8 11.3 0.00 0.00 0.00 75 1013.8
20260504200714 16 227 4.8 11.3 0.00 0.00 0.00 76 1013.8
20260504195830 16 203 4.8 14.5 0.00 0.00 0.00 76 1013.9
20260504194834 16 248 4.8 12.9 0.00 0.00 0.00 79 1013.9